User: anonymous   Login
Location: Caltech
(34.1382°N, 118.1253°W)
Time: 01:07:17
(UTC-07:00)
Language:

Cosmos 1833 - Orbit

View from above orbital plane
View from above orbital plane
View from above satellite
View from above satellite

Ground track
Ground track

The orbit data is extracted from the following two-line orbital elements,

1 17589U 87027A   17081.90124827 +.00000182 +00000-0 +12331-3 0  9998
2 17589 070.9167 006.0678 0025646 085.6581 274.7470 14.12864580547887
Epoch (UTC): 22 March 2017 21:37:47
Eccentricity: 0.0025646
inclination: 70.9167°
perigee height: 831 km
apogee height: 868 km
right ascension of ascending node: 6.0678°
argument of perigee: 85.6581°
revolutions per day: 14.12864580
mean anomaly at epoch: 274.7470°
orbit number at epoch: 54788

The dashed part of the orbit path shows where the satellite is in the earth's shadow,  

DLR